Location: Berg
(47.2344°N, 9.5296°E)
Time: 12:22:47
(UTC+00:00)

NOSS 2-1 (C) - Pass Details

Date: 24 January 2021
Orbit: 432 x 1770 km, 63.3° (Epoch: 27 February)

Event Time Altitude Azimuth Distance (km) Brightness Sun altitude
Rises 18:32:59 0° 235° (SW) 2,431 7.5 -23.7°
Reaches altitude 10° 18:35:06 10° 242° (WSW) 1,535 6.4 -24.1°
Enters shadow 18:37:44 40° 288° (WNW) 663 4.1 -24.5°
